FW8327 Weather Reports


Display with metric or nautical units.
time (UTC)temp
F
wind
direction
speed
MPH
gust
MPH
rain 1hr
in
rain 24hr
in
rain mn
in
humidity
%
barometer
mb
20260901201408 92 245 2.0 2.0 0.00 0.00 0.00 67 1014.8
20260901200902 92 157 0.0 0.0 0.00 0.00 0.00 65 1015.0
20260901200358 92 205 1.0 2.0 0.00 0.00 0.00 65 1014.8
20260901195856 93 271 0.0 0.0 0.00 0.00 0.00 65 1015.0
20260901195349 93 231 0.0 0.0 0.00 0.00 0.00 66 1014.7
20260901194844 92 165 0.0 0.0 0.00 0.00 0.00 64 1014.8
20260901194338 92 197 0.0 0.0 0.00 0.00 0.00 67 1014.6
20260901193836 93 164 0.0 0.0 0.00 0.00 0.00 66 1014.8
20260901193334 93 222 0.0 0.0 0.00 0.00 0.00 66 1014.7
20260901192829 93 247 0.0 0.0 0.00 0.00 0.00 66 1014.8
20260901192324 93 192 0.0 0.0 0.00 0.00 0.00 64 1015.0
20260901191821 93 248 0.0 0.0 0.00 0.00 0.00 66 1015.0
20260901191315 92 165 0.0 0.0 0.00 0.00 0.00 70 1015.0
20260901190812 93 209 0.0 0.0 0.00 0.00 0.00 67 1014.9
20260901190306 93 270 0.0 0.0 0.00 0.00 0.00 67 1014.9
20260901185804 93 138 0.0 0.0 0.00 0.00 0.00 65 1014.9
20260901185306 93 163 0.0 0.0 0.00 0.00 0.00 68 1015.0
20260901184759 92 168 0.0 0.0 0.00 0.00 0.00 66 1015.2
20260901184254 92 238 0.0 0.0 0.00 0.00 0.00 66 1015.1
20260901183750 92 269 1.0 2.0 0.00 0.00 0.00 66 1014.9
20260901183249 91 181 0.0 0.0 0.00 0.00 0.00 69 1014.9
20260901182745 92 231 0.0 0.0 0.00 0.00 0.00 71 1015.0
20260901182244 91 177 0.0 0.0 0.00 0.00 0.00 68 1015.1
20260901181739 92 205 0.0 0.0 0.00 0.00 0.00 66 1015.0
20260901181234 92 151 0.0 0.0 0.00 0.00 0.00 67 1015.1
20260901180733 93 207 0.0 0.0 0.00 0.00 0.00 68 1015.1
20260901180232 93 158 0.0 0.0 0.00 0.00 0.00 69 1015.3
20260901175731 92 179 0.0 0.0 0.00 0.00 0.00 69 1015.1
20260901175226 92 240 0.0 0.0 0.00 0.00 0.00 65 1015.1
20260901174721 92 267 0.0 0.0 0.00 0.00 0.00 67 1015.2
20260901174218 92 164 0.0 0.0 0.00 0.00 0.00 69 1015.0
20260901173713 91 161 0.0 0.0 0.00 0.00 0.00 67 1015.3
20260901173208 91 134 0.0 0.0 0.00 0.00 0.00 69 1015.3
20260901172704 91 178 0.0 0.0 0.00 0.00 0.00 68 1015.3
20260901172202 91 135 0.0 0.0 0.00 0.00 0.00 66 1015.3
20260901171701 91 255 0.0 0.0 0.00 0.00 0.00 68 1015.3
20260901171155 91 169 0.0 0.0 0.00 0.00 0.00 66 1015.4
20260901170654 91 186 0.0 0.0 0.00 0.00 0.00 67 1015.5
20260901170149 91 198 0.0 0.0 0.00 0.00 0.00 68 1015.3
20260901165648 89 247 0.0 1.0 0.00 0.00 0.00 69 1015.5
20260901165143 90 244 0.0 0.0 0.00 0.00 0.00 67 1015.4
20260901164640 90 145 0.0 0.0 0.00 0.00 0.00 68 1015.7
20260901164134 89 162 0.0 0.0 0.00 0.00 0.00 69 1015.7
20260901163630 89 251 0.0 0.0 0.00 0.00 0.00 70 1015.7
20260901163128 90 163 0.0 0.0 0.00 0.00 0.00 67 1015.8
20260901162624 90 217 0.0 0.0 0.00 0.00 0.00 72 1015.9
20260901162124 90 178 0.0 0.0 0.00 0.00 0.00 72 1015.9
20260901161623 89 185 0.0 0.0 0.00 0.00 0.00 70 1015.8
20260901161122 88 163 0.0 0.0 0.00 0.00 0.00 71 1015.8
20260901160619 88 265 1.0 1.0 0.00 0.00 0.00 70 1015.8
20260901160114 89 265 0.0 0.0 0.00 0.00 0.00 69 1015.8
20260901155613 89 167 0.0 2.0 0.00 0.00 0.00 68 1015.8
20260901155108 88 208 0.0 0.0 0.00 0.00 0.00 71 1015.9
20260901154607 88 239 0.0 0.0 0.00 0.00 0.00 71 1016.0
20260901154057 88 212 0.0 0.0 0.00 0.00 0.00 70 1016.0
20260901153552 87 284 0.0 0.0 0.00 0.00 0.00 71 1016.1
20260901153051 87 245 0.0 0.0 0.00 0.00 0.00 75 1016.2
20260901152547 86 189 0.0 0.0 0.00 0.00 0.00 74 1016.2
20260901152045 86 275 0.0 0.0 0.00 0.00 0.00 72 1016.2
20260901151541 86 204 0.0 0.0 0.00 0.00 0.00 72 1016.2
20260901151041 86 289 1.0 1.0 0.00 0.00 0.00 72 1016.1
20260901150539 86 255 0.0 1.0 0.00 0.00 0.00 71 1015.9
20260901150038 86 244 0.0 0.0 0.00 0.00 0.00 73 1016.0
20260901145536 86 204 0.0 0.0 0.00 0.00 0.00 73 1016.0
20260901145030 86 226 0.0 0.0 0.00 0.00 0.00 73 1016.0
20260901144527 86 160 0.0 0.0 0.00 0.00 0.00 74 1016.0
20260901144021 85 71 0.0 0.0 0.00 0.00 0.00 77 1015.8
20260901143517 84 220 0.0 1.0 0.00 0.00 0.00 76 1015.9
20260901143013 84 255 0.0 0.0 0.00 0.00 0.00 77 1016.0
20260901142508 84 202 0.0 0.0 0.00 0.00 0.00 77 1016.0
20260901142003 84 237 0.0 0.0 0.00 0.00 0.00 77 1015.9
20260901141503 83 258 0.0 0.0 0.00 0.00 0.00 78 1016.1
20260901140958 83 206 0.0 0.0 0.00 0.00 0.00 78 1015.9
20260901140456 83 169 0.0 0.0 0.00 0.00 0.00 80 1016.2
20260901135955 82 206 0.0 0.0 0.00 0.00 0.00 81 1016.1
20260901135450 83 267 0.0 0.0 0.00 0.00 0.00 79 1016.1
20260901134946 82 163 0.0 0.0 0.00 0.00 0.00 80 1016.3
20260901134442 82 163 0.0 0.0 0.00 0.00 0.00 81 1016.5
20260901133936 82 203 0.0 0.0 0.00 0.00 0.00 81 1016.4
20260901133435 82 140 0.0 0.0 0.00 0.00 0.00 82 1016.4
20260901132934 81 150 0.0 0.0 0.00 0.00 0.00 82 1016.3
20260901132429 81 159 0.0 0.0 0.00 0.00 0.00 83 1016.2
20260901131927 81 172 0.0 0.0 0.00 0.00 0.00 82 1016.2
20260901131422 80 160 0.0 0.0 0.00 0.00 0.00 84 1016.3
20260901130918 80 161 0.0 0.0 0.00 0.00 0.00 84 1016.4
20260901130417 79 164 0.0 0.0 0.00 0.00 0.00 85 1016.3
20260901125915 79 181 0.0 0.0 0.00 0.00 0.00 85 1016.2
20260901125414 79 210 0.0 0.0 0.00 0.00 0.00 86 1016.5
20260901124909 78 255 0.0 0.0 0.00 0.00 0.00 87 1016.2
20260901124405 78 166 0.0 0.0 0.00 0.00 0.00 88 1016.4
20260901123859 78 176 0.0 0.0 0.00 0.00 0.00 88 1016.4
20260901123354 77 172 0.0 0.0 0.00 0.00 0.00 88 1016.4
20260901122852 77 162 0.0 0.0 0.00 0.00 0.00 90 1016.1
20260901122347 76 146 0.0 0.0 0.00 0.00 0.00 91 1016.3
20260901121846 75 165 0.0 0.0 0.00 0.00 0.00 92 1016.0
20260901121342 75 156 0.0 0.0 0.00 0.00 0.00 93 1016.2
20260901120837 74 177 0.0 0.0 0.00 0.00 0.00 94 1015.9
20260901120331 74 146 0.0 0.0 0.00 0.00 0.00 94 1015.9
20260901115827 73 156 0.0 0.0 0.00 0.00 0.00 95 1015.9
20260901115322 73 162 0.0 0.0 0.00 0.00 0.00 96 1016.0
20260901114819 73 160 0.0 0.0 0.00 0.00 0.00 96 1016.0
20260901114314 73 160 0.0 0.0 0.00 0.00 0.00 96 1015.8
20260901113812 73 162 0.0 0.0 0.00 0.00 0.00 96 1015.8
20260901113307 73 159 0.0 0.0 0.00 0.00 0.00 96 1015.8
20260901112802 73 159 0.0 0.0 0.00 0.00 0.00 96 1015.8
20260901112305 73 157 0.0 0.0 0.00 0.00 0.00 96 1015.6
20260901111757 73 157 0.0 0.0 0.00 0.00 0.00 96 1016.0
20260901111255 73 157 0.0 0.0 0.00 0.00 0.00 96 1015.6
20260901110754 73 157 0.0 0.0 0.00 0.00 0.00 95 1015.6
20260901110250 73 159 0.0 0.0 0.00 0.00 0.00 95 1015.5
20260901105746 73 159 0.0 0.0 0.00 0.00 0.00 94 1015.4
20260901105246 73 165 0.0 0.0 0.00 0.00 0.00 95 1015.5
20260901104742 73 153 0.0 0.0 0.00 0.00 0.00 95 1015.3
20260901104238 73 159 0.0 0.0 0.00 0.00 0.00 95 1015.5
20260901103737 73 156 0.0 0.0 0.00 0.00 0.00 95 1015.3
20260901103232 73 157 0.0 0.0 0.00 0.00 0.00 95 1015.2
20260901102727 74 157 0.0 0.0 0.00 0.00 0.00 94 1015.2
20260901102226 74 155 0.0 0.0 0.00 0.00 0.00 93 1015.4
20260901101722 74 192 0.0 0.0 0.00 0.00 0.00 93 1015.3
20260901101216 74 158 0.0 0.0 0.00 0.00 0.00 93 1015.4
20260901100711 74 168 0.0 0.0 0.00 0.00 0.00 93 1015.5
20260901100206 74 161 0.0 0.0 0.00 0.00 0.00 93 1015.4
20260901095704 75 151 0.0 0.0 0.00 0.00 0.00 93 1015.3
20260901095202 74 164 0.0 0.0 0.00 0.00 0.00 93 1015.3
20260901094657 75 159 0.0 0.0 0.00 0.00 0.00 93 1015.3
20260901094156 74 162 0.0 0.0 0.00 0.00 0.00 93 1015.2
20260901093651 75 177 0.0 0.0 0.00 0.00 0.00 93 1015.0
20260901093150 75 185 0.0 0.0 0.00 0.00 0.00 93 1015.1
20260901092646 75 163 0.0 0.0 0.00 0.00 0.00 93 1015.1
20260901092142 75 161 0.0 0.0 0.00 0.00 0.00 93 1015.0
20260901091637 75 164 0.0 0.0 0.00 0.00 0.00 93 1014.9
20260901091132 75 146 0.0 0.0 0.00 0.00 0.00 93 1015.0
20260901090627 75 145 0.0 0.0 0.00 0.00 0.00 92 1014.9
20260901090123 75 165 0.0 0.0 0.00 0.00 0.00 92 1015.2
20260901085619 75 159 0.0 0.0 0.00 0.00 0.00 91 1015.0
20260901085114 76 151 0.0 0.0 0.00 0.00 0.00 91 1014.9
20260901084610 76 179 0.0 0.0 0.00 0.00 0.00 91 1014.8
20260901084106 76 194 0.0 0.0 0.00 0.00 0.00 91 1015.0
20260901083606 76 214 0.0 0.0 0.00 0.00 0.00 90 1014.8
20260901083104 76 255 0.0 0.0 0.00 0.00 0.00 90 1014.9
20260901082559 76 162 0.0 0.0 0.00 0.00 0.00 90 1014.8
20260901082055 76 165 0.0 0.0 0.00 0.00 0.00 90 1014.9
20260901081550 76 151 0.0 0.0 0.00 0.00 0.00 90 1014.8
20260901081049 76 158 0.0 0.0 0.00 0.00 0.00 89 1014.7
20260901080544 77 156 0.0 0.0 0.00 0.00 0.00 89 1014.7
20260901080043 76 205 0.0 0.0 0.00 0.00 0.00 90 1014.8
20260901075539 76 145 0.0 0.0 0.00 0.00 0.00 90 1014.6
20260901075038 76 147 0.0 0.0 0.00 0.00 0.00 90 1014.6
20260901074538 77 161 0.0 0.0 0.00 0.00 0.00 89 1014.8
20260901074033 77 209 0.0 0.0 0.00 0.00 0.00 89 1014.8
20260901073530 77 170 0.0 0.0 0.00 0.00 0.00 89 1014.8
20260901073024 77 196 0.0 0.0 0.00 0.00 0.00 89 1014.8
20260901072519 77 161 0.0 0.0 0.00 0.00 0.00 89 1014.8
20260901072014 77 176 0.0 0.0 0.00 0.00 0.00 89 1014.9
20260901071509 77 158 0.0 0.0 0.00 0.00 0.00 89 1014.9
20260901071008 77 140 0.0 0.0 0.00 0.00 0.00 89 1014.7
20260901070503 77 173 0.0 0.0 0.00 0.00 0.00 89 1014.9
20260901070003 76 154 0.0 0.0 0.00 0.00 0.00 90 1014.9
20260901065457 76 152 0.0 0.0 0.00 0.00 0.00 91 1014.8
20260901064946 76 157 0.0 0.0 0.00 0.00 0.00 92 1014.7
20260901064443 76 160 0.0 0.0 0.00 0.00 0.00 92 1015.0
20260901063940 75 158 0.0 0.0 0.00 0.00 0.00 92 1015.1
20260901063436 75 138 0.0 0.0 0.00 0.00 0.00 92 1015.0
20260901062932 75 154 0.0 0.0 0.00 0.00 0.00 93 1015.0
20260901062427 75 150 0.0 0.0 0.00 0.00 0.00 93 1015.1
20260901061923 75 149 0.0 0.0 0.00 0.00 0.00 93 1015.3
20260901061419 76 146 0.0 0.0 0.00 0.00 0.00 93 1015.1
20260901060914 75 154 0.0 0.0 0.00 0.00 0.00 93 1015.0
20260901060409 75 151 0.0 0.0 0.00 0.00 0.00 93 1015.1
20260901055908 75 150 0.0 0.0 0.00 0.00 0.00 94 1015.1
20260901055405 75 156 0.0 0.0 0.00 0.00 0.00 94 1015.2
20260901054901 75 154 0.0 0.0 0.00 0.00 0.00 94 1015.1
20260901054358 75 149 0.0 0.0 0.00 0.00 0.00 94 1015.1
20260901053854 76 152 0.0 0.0 0.00 0.00 0.00 94 1015.0
20260901053349 76 157 0.0 0.0 0.00 0.00 0.00 94 1015.0
20260901052845 75 147 0.0 0.0 0.00 0.00 0.00 94 1015.3
20260901052340 75 147 0.0 0.0 0.00 0.00 0.00 94 1015.1
20260901051838 76 147 0.0 0.0 0.00 0.00 0.00 94 1015.0
20260901051334 76 148 0.0 0.0 0.00 0.00 0.00 94 1015.1
20260901050829 76 151 0.0 0.0 0.00 0.00 0.00 94 1015.0
20260901050324 76 151 0.0 0.0 0.00 0.00 0.00 94 1014.9
20260901045814 76 146 0.0 0.0 0.00 0.00 0.00 94 1015.1
20260901045313 76 154 0.0 0.0 0.00 0.00 0.00 94 1015.2
20260901044809 76 150 0.0 0.0 0.00 0.00 0.00 94 1015.1
20260901044305 76 150 0.0 0.0 0.00 0.00 0.00 95 1015.0
20260901043800 75 149 0.0 0.0 0.00 0.00 0.00 95 1014.9
20260901043256 75 154 0.0 0.0 0.00 0.00 0.00 95 1014.8
20260901042755 76 154 0.0 0.0 0.00 0.00 0.00 95 1014.8
20260901042255 76 156 0.0 0.0 0.00 0.00 0.00 95 1015.0
20260901041751 76 148 0.0 0.0 0.00 0.00 0.00 94 1014.8
20260901041246 76 151 0.0 0.0 0.00 0.00 0.00 94 1015.0
20260901040735 76 152 0.0 0.0 0.00 0.00 0.00 93 1014.6
20260901040234 77 148 0.0 0.0 0.00 0.00 0.00 93 1014.7
20260901035732 77 154 0.0 0.0 0.00 0.00 0.00 93 1014.8
20260901035226 77 162 0.0 0.0 0.00 0.00 0.00 93 1014.7
20260901034726 77 158 0.0 0.0 0.00 0.00 0.00 92 1014.8
20260901034221 76 160 0.0 0.0 0.00 0.00 0.00 93 1014.8
20260901033720 76 151 0.0 0.0 0.00 0.00 0.00 93 1014.7
20260901033214 76 153 0.0 0.0 0.00 0.00 0.00 93 1014.4
20260901032712 76 157 0.0 0.0 0.00 0.00 0.00 92 1014.8
20260901032207 76 154 0.0 0.0 0.00 0.00 0.00 92 1014.7
20260901031702 76 156 0.0 0.0 0.00 0.00 0.00 92 1015.0
20260901031158 76 165 0.0 0.0 0.00 0.00 0.00 92 1015.0
20260901030653 76 153 0.0 0.0 0.00 0.00 0.00 91 1015.1
20260901030147 76 154 0.0 0.0 0.00 0.00 0.00 91 1015.1
20260901025648 76 154 0.0 0.0 0.00 0.00 0.00 91 1015.4
20260901025142 76 154 0.0 0.0 0.00 0.00 0.00 91 1015.0
20260901024641 76 154 0.0 0.0 0.00 0.00 0.00 90 1015.4
20260901024136 76 155 0.0 0.0 0.00 0.00 0.00 90 1015.5
20260901023635 76 155 0.0 0.0 0.00 0.00 0.00 91 1015.5
20260901023130 76 155 0.0 0.0 0.00 0.00 0.00 91 1015.6
20260901022625 76 155 0.0 0.0 0.00 0.00 0.00 92 1015.5
20260901022120 76 155 0.0 0.0 0.00 0.00 0.00 91 1015.7
20260901021615 77 155 0.0 0.0 0.00 0.00 0.00 90 1015.7
20260901021110 77 155 0.0 0.0 0.00 0.00 0.00 90 1015.7
20260901020607 77 155 0.0 0.0 0.00 0.00 0.00 90 1015.5
20260901015557 77 155 0.0 0.0 0.00 0.00 0.00 90 1015.6
20260901015056 78 155 0.0 0.0 0.00 0.00 0.00 89 1015.5
20260901014551 78 155 0.0 0.0 0.00 0.00 0.00 88 1015.2
20260901014048 78 155 0.0 0.0 0.00 0.00 0.00 87 1015.1
20260901013543 78 155 0.0 0.0 0.00 0.00 0.00 88 1015.1
20260901013039 78 155 0.0 0.0 0.00 0.00 0.00 87 1015.4
20260901012538 78 155 0.0 0.0 0.00 0.00 0.00 87 1015.2
20260901012034 78 155 0.0 0.0 0.00 0.00 0.00 87 1015.1
20260901011531 78 155 0.0 0.0 0.00 0.00 0.00 88 1015.1
20260901011028 78 155 0.0 0.0 0.00 0.00 0.00 87 1014.9
20260901010523 78 155 0.0 0.0 0.00 0.00 0.00 86 1014.9
20260901010022 79 155 0.0 0.0 0.00 0.00 0.00 86 1014.7
20260901005523 80 155 0.0 0.0 0.00 0.00 0.00 85 1014.7
20260901005018 80 155 0.0 0.0 0.00 0.00 0.00 84 1014.6
20260901004517 80 158 0.0 0.0 0.00 0.00 0.00 83 1014.6
20260901004012 80 155 0.0 0.0 0.00 0.00 0.00 83 1014.6
20260901003507 80 154 0.0 0.0 0.00 0.00 0.00 83 1014.8
20260901003006 81 167 0.0 0.0 0.00 0.00 0.00 83 1014.8
20260901002505 82 156 0.0 0.0 0.00 0.00 0.00 81 1014.7
20260901002000 82 156 0.0 0.0 0.00 0.00 0.00 82 1014.7
20260901001456 82 156 0.0 0.0 0.00 0.00 0.00 81 1014.9
20260901000951 83 156 0.0 0.0 0.00 0.00 0.00 80 1014.8
20260901000451 83 156 0.0 0.0 0.00 0.00 0.00 79 1014.7
20260831235949 84 156 0.0 0.0 0.00 0.00 0.00 79 1014.6
20260831235445 84 156 0.0 0.0 0.00 0.00 0.00 78 1014.6
20260831234940 85 156 0.0 0.0 0.00 0.00 0.00 77 1014.6
20260831234435 86 156 0.0 0.0 0.00 0.00 0.00 75 1014.5
20260831233930 86 156 0.0 0.0 0.00 0.00 0.00 75 1014.4
20260831233425 87 156 0.0 0.0 0.00 0.00 0.00 73 1014.6
20260831232921 88 153 0.0 0.0 0.00 0.00 0.00 70 1014.7
20260831232417 88 154 0.0 0.0 0.00 0.00 0.00 70 1014.6
20260831231912 89 151 0.0 0.0 0.00 0.00 0.00 68 1014.7
20260831231409 89 200 0.0 0.0 0.00 0.00 0.00 67 1014.6
20260831230904 89 165 0.0 0.0 0.00 0.00 0.00 66 1014.5
20260831230359 89 155 0.0 0.0 0.00 0.00 0.00 66 1014.5
20260831225853 89 163 0.0 0.0 0.00 0.00 0.00 66 1014.6
20260831225349 89 164 0.0 0.0 0.00 0.00 0.00 66 1014.8
20260831224844 89 168 0.0 0.0 0.00 0.00 0.00 65 1014.3
20260831224338 89 221 0.0 0.0 0.00 0.00 0.00 65 1014.4
20260831223833 89 174 0.0 0.0 0.00 0.00 0.00 63 1014.3
20260831223330 90 164 0.0 0.0 0.00 0.00 0.00 63 1014.4
20260831222826 90 155 0.0 0.0 0.00 0.00 0.00 65 1014.8
20260831222322 90 212 0.0 0.0 0.00 0.00 0.00 62 1014.5
20260831221821 90 174 0.0 0.0 0.00 0.00 0.00 62 1014.4
20260831221317 90 174 0.0 0.0 0.00 0.00 0.00 62 1014.7
20260831220812 91 173 0.0 1.0 0.00 0.00 0.00 62 1014.5
20260831220307 91 185 0.0 0.0 0.00 0.00 0.00 64 1014.6
20260831215803 90 201 0.0 0.0 0.00 0.00 0.00 63 1014.6
20260831215258 91 212 0.0 0.0 0.00 0.00 0.00 64 1014.6
20260831214755 90 159 0.0 0.0 0.00 0.00 0.00 63 1014.6
20260831214252 91 190 0.0 0.0 0.00 0.00 0.00 63 1014.7
20260831213747 91 143 0.0 0.0 0.00 0.00 0.00 63 1014.8
20260831213243 90 186 0.0 0.0 0.00 0.00 0.00 63 1014.9
20260831212738 91 205 1.0 2.0 0.00 0.00 0.00 61 1014.9
20260831212235 91 152 0.0 0.0 0.00 0.00 0.00 63 1014.9
20260831211733 91 216 0.0 0.0 0.00 0.00 0.00 62 1015.0
20260831211229 91 154 0.0 0.0 0.00 0.00 0.00 64 1014.9
20260831210728 91 143 0.0 0.0 0.00 0.00 0.00 61 1014.9
20260831210225 91 158 0.0 0.0 0.00 0.00 0.00 63 1015.0
20260831205723 91 159 0.0 0.0 0.00 0.00 0.00 62 1014.9
20260831205220 91 174 0.0 0.0 0.00 0.00 0.00 61 1014.8
20260831204715 90 167 0.0 0.0 0.00 0.00 0.00 62 1014.8
20260831204214 90 170 0.0 0.0 0.00 0.00 0.00 60 1014.7
20260831203713 90 139 0.0 0.0 0.00 0.00 0.00 61 1014.8
20260831203208 90 153 0.0 0.0 0.00 0.00 0.00 64 1014.8
20260831202706 91 201 0.0 0.0 0.00 0.00 0.00 63 1015.0
20260831202201 91 160 0.0 0.0 0.00 0.00 0.00 64 1015.0
20260831201700 91 256 0.0 0.0 0.00 0.00 0.00 62 1015.1